www.pogodaiklimat.ru

Погода и климат >> Архив погоды >> Венгрия >> Szombathely


ПОГОДА в Szombathely

  • Прогноз погоды в Szombathely
  • Монитор погоды в Szombathely
  • Климат города

АРХИВ ПОГОДЫ в Szombathely

Время (UTC), дата Ветер
(напр.,м/с)
 
Видим.   Явления Облачность Т
(С)
Тd
(С)
f
(%)
Тe
(С)
Тes
(С)
Комфортность P
(гПа)
Po
(гПа)
Тmin
(С)
Tmax
(С)
R
(мм)
R24
(мм)
S
(см)
23 15.10 штиль 0 н/о н/о +6.7 +4.9 88 +6 +6 1022.6 997.7
22 15.10 ЮЗ 1 н/о н/о +7.3 +5.1 86 +6 +6 1022.9 998.0
00 16.10 ЮЗ 1 н/о н/о +6.3 +4.9 91 +5 +5 1022.5 997.6
01 16.10 Ю 1 н/о н/о +7.8 +5.4 85 +7 +7 1022.1 997.3
02 16.10 ЮВ 1 н/о н/о +8.3 +5.9 85 +8 +8 1022.1 997.3
03 16.10 Ю 1 12 км 5/0
[Ac lent Ci sp]
+8.6 +6.4 86 +8 +8 1021.7 997.0
05 16.10 З 1 13 км 8/4 800 м
[Sc Ac lent Ci sp]
+8.2 +6.0 86 +7 +7 1022.0 997.2
04 16.10 З 2 12 км 6/0
[Ac lent Ci sp]
+8.2 +6.0 86 +6 +6 1022.2 997.4
06 16.10 З 2 18 км 9/3 900 м
[Sc Ac As Ci sp]
+9.6 +6.5 81 +8 +8 1021.9 997.3 +6.0
07 16.10 З 1 н/о н/о +11.4 +7.1 75 +11 +11 1022.3 997.8
08 16.10 ЮЗ 3 н/о н/о +14.1 +7.6 65 +13 +13 1022.2 997.9
09 16.10 ЮЗ 3 15 км 5/0
[Ac trans Ci sp]
+15.2 +8.2 63 +15 +17 1022.3 998.1
11 16.10 Ю 3 16 км 8/0
[Ac trans Cc]
+16.1 +8.3 60 +16 +19 1022.2 998.1
10 16.10 Ю 2 н/о н/о +16.0 +8.7 62 +16 +16 1022.3 998.2
12 16.10 ЮВ 3 15 км 9/0
[Ac lent Cs]
+16.5 +8.5 59 +16 +19 1021.9 997.8
13 16.10 ЮВ 2 15 км 9/0
[Ac lent Cs]
+16.9 +9.1 60 +17 +20 1021.7 997.7
14 16.10 ЮВ 2 н/о н/о +16.5 +9.0 61 +17 +17 1021.8 997.7
15 16.10 Ю 3 15 км 6/0
[Ac lent Cs]
+16.0 +8.7 62 +16 +16 1021.7 997.6
17 16.10 ЮВ 1 н/о н/о +13.1 +8.6 74 +13 +13 1022.1 997.8
16 16.10 ЮВ 1 н/о н/о +14.9 +8.8 67 +15 +15 1021.8 997.6
18 16.10 Ю 1 12 км 9/0
[Ac As Cs]
+12.7 +9.0 78 +13 +13 1022.3 997.9 +17.0
19 16.10 З 2 н/о н/о +11.8 +9.0 83 +11 +11 1022.6 998.1
20 16.10 штиль 0 н/о н/о +11.5 +9.2 86 +11 +11 1022.8 998.3
21 16.10 штиль 0 н/о н/о +9.8 +8.2 90 +9 +9 1022.8 998.2
23 16.10 штиль 0 н/о н/о +8.4 +7.8 96 +7 +7 1022.6 997.8
22 16.10 ЮВ 1 н/о н/о +8.9 +7.8 93 +8 +8 1022.6 997.9
00 17.10 штиль 0 н/о н/о +7.7 +7.3 97 +7 +7 1022.3 997.5
01 17.10 штиль 0 н/о н/о +8.3 +8.0 98 +7 +7 1022.1 997.3
02 17.10 Ю 1 н/о н/о +8.3 +8.0 98 +7 +7 1021.6 996.9
03 17.10 дымка н/о +7.4 1021.9 997.0
05 17.10 Ю 2 3000 м дымка 9/0
[Ac As Ci sp]
+8.7 +8.3 97 +7 +7 1021.4 996.7
04 17.10 Ю 1 2500 м дымка 5/0
[Ac lent Ci sp]
+8.3 +7.9 97 +7 +7 1021.5 996.8
06 17.10 ЮЗ 1 3500 м дымка 9/0
[Ac As Ci sp]
+9.1 +8.6 97 +8 +8 1021.7 997.0
07 17.10 ЮЗ 1 н/о н/о +10.4 +9.0 91 +10 +10 1021.9 997.3
08 17.10 Ю 1 н/о н/о +11.9 +9.6 86 +12 +12 1022.0 997.6
09 17.10 Ю 3 8000 м 8/0
[Ac As Cc]
+14.9 +10.7 76 +14 +16 1021.7 997.5
11 17.10 ЮЗ 2 12 км 9/0
[Ac As]
+17.9 +11.0 64 +18 +21 1020.8 996.9
10 17.10 Ю 2 н/о н/о +16.5 +11.0 70 +17 +17 1021.6 997.5
12 17.10 ЮЗ 1 12 км 9/0
[Ac As Ci sp]
+18.8 +11.6 63 +21 +23 комфорт 1020.1 996.3
13 17.10 З 1 13 км 9/0
[Ac lent Cs]
+19.1 +11.4 61 +21 +24 комфорт 1020.0 996.2
14 17.10 штиль 0 н/о н/о +19.3 +11.3 60 +20 +20 1019.8 996.0
15 17.10 штиль 0 9000 м 9/0
[Ac As]
+19.3 +11.3 60 +20 +21 1019.7 995.9
17 17.10 штиль 0 н/о н/о +16.0 +12.0 77 +16 +16 1020.0 995.9
16 17.10 штиль 0 н/о н/о +17.8 +11.8 68 +18 +18 1019.6 995.7
18 17.10 СЗ 1 8000 м 9/0
[Ac As]
+15.5 +11.5 77 +16 +16 1020.1 996.0 +19.5
19 17.10 штиль 0 н/о н/о +14.9 +11.3 79 +15 +15 1020.2 996.0
20 17.10 СЗ 2 н/о н/о +14.2 +11.9 86 +14 +14 1020.3 996.1
21 17.10 штиль 0 н/о н/о +14.1 +12.5 90 +14 +14 1020.4 996.2
23 17.10 штиль 0 н/о н/о +13.3 +12.7 96 +13 +13 1020.0 995.7
22 17.10 З 1 н/о н/о +13.5 +12.7 95 +14 +14 1020.4 996.1
00 18.10 ЮВ 1 н/о н/о +12.8 +12.5 98 +13 +13 1020.0 995.7 0.4
01 18.10 штиль 0 н/о н/о +12.9 +12.6 98 +12 +12 1019.8 995.5
02 18.10 штиль 0 н/о н/о +12.7 +12.4 98 +12 +12 1019.4 995.1
03 18.10 штиль 0 3000 м дымка 9/4 600 м
[Sc Ac As]
+12.3 +12.0 98 +12 +12 1019.2 994.9
05 18.10 штиль 0 800 м туман 9/5 700 м
[Sc Ac As Ci sp]
+12.0 +11.8 99 +11 +11 1018.9 994.5
04 18.10 штиль 0 2000 м дымка 6/4 600 м
[Sc Ac lent Ci sp]
+12.0 +11.8 99 +11 +11 1019.1 994.7
06 18.10 С 1 900 м слабый дождь {туман} 9/3 600 м
[Sc Ac As Ci sp]
+12.1 +11.9 99 +12 +12 1019.1 994.7 0.5
07 18.10 штиль 0 н/о н/о +13.0 +12.8 99 +12 +12 1019.4 995.1
08 18.10 ЮЗ 1 н/о н/о +13.7 +13.5 99 +14 +14 1019.3 995.1
09 18.10 Ю 1 6000 м {дождь} 8/3 900 м
[Sc Ac As Ci sp]
+17.1 +10.5 65 +18 +20 1019.2 995.3
11 18.10 штиль 0 16 км 8/0
[Ac As Ci sp]
+19.0 +8.6 51 +20 +24 1018.7 994.9
10 18.10 Ю 1 н/о н/о +17.2 +11.0 67 +18 +18 1019.2 995.3
12 18.10 штиль 0 18 км {дождь, туман} 5/0
[Ac lent Ci sp]
+20.5 +7.8 44 +21 +26 комфорт 1017.9 994.3 0.1
13 18.10 Ю 1 20 км 4/0
[Ac lent Cc]
+21.1 +7.7 42 +22 +25 комфорт 1017.6 994.0
14 18.10 В 1 н/о н/о +20.9 +7.2 41 +23 +23 комфорт 1017.5 993.9
15 18.10 В 1 23 км 8/3 900 м
[Sc Ac As Ci sp]
+20.3 +8.3 46 +23 +23 комфорт 1017.6 993.9
17 18.10 С 1 н/о н/о +16.5 +9.9 65 +17 +17 1018.3 994.3
16 18.10 В 1 н/о н/о +18.9 +9.9 56 +21 +21 комфорт 1017.6 993.8
18 18.10 С 2 15 км 4/0
[Ac lent Ci sp]
+15.5 +9.0 65 +15 +15 1019.0 994.9 +21.5 0.1 0
19 18.10 С 2 н/о н/о +14.4 +9.0 70 +14 +14 1019.3 995.1
20 18.10 С 3 н/о н/о +14.1 +9.1 72 +13 +13 1019.8 995.6
21 18.10 С 2 н/о н/о +14.8 +9.2 69 +15 +15 1019.9 995.7
23 18.10 С 1 н/о н/о +12.8 +8.9 77 +13 +13 1020.4 996.1
22 18.10 С 2 н/о н/о +14.4 +9.0 70 +14 +14 1020.2 996.0
00 19.10 С 1 н/о н/о +11.7 +8.6 81 +12 +12 1020.4 996.0
01 19.10 штиль 0 н/о н/о +10.3 +7.9 85 +10 +10 1020.5 996.0
02 19.10 ЮВ 1 н/о н/о +9.6 +8.0 90 +9 +9 1020.4 995.8
03 19.10 штиль 0 4000 м дымка 9/4 800 м
[Sc Ac As]
+10.4 +9.0 91 +10 +10 1020.2 995.7
05 19.10 штиль 0 2000 м дымка 5/1 900 м
[Sc Ac lent Ci sp]
+8.7 +7.8 94 +8 +8 1020.6 995.9
04 19.10 штиль 0 3500 м дымка 8/3 900 м
[Sc Ac As Ci sp]
+9.8 +8.7 93 +9 +9 1020.6 996.0
06 19.10 З 1 3500 м дымка 6/1 900 м
[Sc Ac lent Ci sp]
+8.0 +7.4 96 +7 +7 1021.1 996.3 +8.0 0
07 19.10 штиль 0 н/о н/о +9.6 +9.1 97 +9 +9 1021.4 996.8
08 19.10 штиль 0 н/о н/о +14.1 +10.3 78 +14 +14 1021.3 997.1
09 19.10 С 3 15 км 5/1 700 м
[Cu med, cong Ac lent Ci sp]
+16.3 +9.9 66 +16 +18 1021.5 997.4
11 19.10 С 4
{8}
18 км 3/1 900 м
[Cu med, cong Ac lent Ci sp]
+18.9 +9.7 55 +19 +23 1020.7 996.9
10 19.10 С 4
{9}
н/о н/о +18.1 +9.5 57 +18 +18 1021.2 997.3
12 19.10 С 4
{8}
20 км 1/1 1000 м
[Cu hum Ac lent Ci sp]
+19.5 +9.4 52 +20 +24 1020.6 996.8
13 19.10 С 4 20 км 3/1 1000 м
[Cu med, cong Ac lent Ci sp]
+19.4 +9.6 53 +20 +22 1020.3 996.5
14 19.10 С 4
{8}
н/о н/о +18.6 +8.8 53 +19 +19 1020.6 996.7
15 19.10 12 км 1/0
[Ac lent Ci fib]
+17.8 +9.3 57 1021.1 997.2
17 19.10 С 3 н/о н/о +15.9 +9.1 64 +15 +15 1021.5 997.4
16 19.10 С 3 н/о н/о +17.1 +9.3 60 +17 +17 1020.9 996.9
18 19.10 С 3 8000 м 1/0
[Ac lent Ci fib]
+14.9 +9.1 68 +14 +14 1022.1 997.9 +19.8 0
19 19.10 С 3 н/о н/о +14.6 +8.8 68 +14 +14 1022.3 998.1
20 19.10 С 2 н/о н/о +14.5 +8.7 68 +14 +14 1022.4 998.2
21 19.10 С 3 н/о н/о +14.4 +8.6 68 +14 +14 1022.4 998.2
23 19.10 С 3
{9}
н/о н/о +13.5 +8.4 71 +12 +12 1023.0 998.7
22 19.10 С 3 н/о н/о +13.8 +8.2 69 +13 +13 1022.7 998.4
00 20.10 С 3
{7}
н/о н/о +12.7 +8.4 75 +11 +11 1023.6 999.2
01 20.10 С 3 н/о н/о +12.3 +8.4 77 +11 +11 1023.8 999.3
02 20.10 С 3 н/о н/о +12.1 +7.8 75 +11 +11 1023.6 999.1
03 20.10 СВ 1 4000 м дымка 1/0
[Ci sp]
+11.0 +7.5 79 +11 +11 1023.9 999.3
05 20.10 Ю 1 1500 м дымка 1/0
[Ci fib]
+6.3 +5.3 93 +5 +5 1025.2 1000.2
04 20.10 СВ 1 4000 м дымка 1/0
[Ci sp]
+9.3 +7.1 86 +9 +9 1024.3 999.6
06 20.10 СВ 1 2000 м местами туман поземный 1/0
[Ci fib]
+6.3 +5.7 96 +5 +5 1025.5 1000.5 +5.8 0
07 20.10 СВ 2 н/о н/о +9.6 +8.8 95 +8 +8 1025.6 1000.9
08 20.10 С 3 н/о н/о +13.6 +8.7 72 +13 +13 1025.7 1001.3
09 20.10 С 6
{9}
7000 м 1/0
[Ci sp]
+14.9 +8.4 65 +13 +15 1025.7 1001.4
11 20.10 С 4
{8}
13 км 3/0
[Ac lent Ci sp]
+17.4 +8.5 56 +17 +20 1025.7 1001.6
10 20.10 С 5
{9}
н/о н/о +16.3 +8.5 60 +15 +15 1026.0 1001.8
12 20.10 С 4 18 км 4/0
[Ac lent Cc]
+18.2 +7.3 49 +18 +21 1025.1 1001.1
13 20.10 С 4
{8}
18 км 5/0
[Ac lent Cc]
+18.1 +7.2 49 +18 +20 1024.5 1000.5
14 20.10 СВ 3
{7}
н/о н/о +17.7 +8.0 53 +18 +18 1024.1 1000.1
15 20.10 С 3
{7}
15 км 8/4 1000 м
[Sc Ac lent Ci sp]
+16.9 +8.6 58 +17 +17 1024.2 1000.1
17 20.10 С 2 н/о н/о +15.8 +8.1 60 +16 +16 1024.4 1000.2
16 20.10 СВ 2 н/о н/о +16.0 +8.7 62 +16 +16 1024.4 1000.2
18 20.10 С 4 12 км 6/3 1000 м
[Sc Ac lent Ci sp]
+15.0 +8.3 64 +14 +14 1024.5 1000.3 +18.7 0
19 20.10 С 3
{8}
н/о н/о +14.1 +7.9 66 +13 +13 1024.8 1000.5
20 20.10 С 4
{8}
н/о н/о +14.1 +8.3 68 +13 +13 1025.3 1001.0
21 20.10 С 5
{9}
н/о н/о +13.8 +7.8 67 +12 +12 1025.5 1001.1
23 20.10 С 5
{10}
н/о н/о +12.5 +4.2 57 +10 +10 1025.2 1000.7
22 20.10 С 3
{8}
н/о н/о +12.8 +7.3 69 +12 +12 1025.6 1001.1
00 21.10 С 6
{12}
н/о н/о +11.6 +3.6 58 +9 +9 1025.1 1000.6
01 21.10 С 7
{13}
н/о н/о +10.3 +2.9 60 +7 +7 1025.3 1000.6
02 21.10 С 6
{13}
н/о н/о +9.8 +0.9 54 +7 +7 1025.2 1000.5
03 21.10 С 5 20 км 6/4 800 м
[Sc Ac lent Cs]
+9.3 +1.0 56 +6 +6 1026.3 1001.5
05 21.10 СЗ 4 35 км 3/1 900 м
[Sc Ac lent Ci fib]
+7.5 -0.5 57 +5 +5 1026.2 1001.3
04 21.10 СЗ 4
{11}
25 км 3/1 900 м
[Sc Ac lent Ci sp]
+7.9 -0.3 56 +5 +5 1026.4 1001.5
06 21.10 СЗ 4 40 км 4/1 900 м
[Sc Ac lent Ci fib]
+7.7 -0.0 58 +5 +5 1025.8 1000.9 +7.4 0
07 21.10 С 3
{8}
н/о н/о +8.9 +0.4 55 +7 +7 1026.0 1001.2
08 21.10 С 5
{11}
н/о н/о +10.3 +1.4 54 +8 +8 1026.0 1001.3
09 21.10 С 7 40 км 8/6 1000 м
[Cu med, cong Ac lent Ci fib]
+11.0 +2.6 56 +8 +8 1025.9 1001.3
11 21.10 С 5
{13}
40 км 9/9 900 м
[Cu med, cong Ac lent]
+10.2 +3.3 62 +7 +8 1026.2 1001.5
10 21.10 С 6
{12}
н/о н/о +10.5 +3.3 61 +8 +8 1026.3 1001.6
12 21.10 С 6
{11}
35 км 8/8 900 м
[Cu med, cong Ac lent]
+10.4 +3.0 60 +7 +8 1025.8 1001.1
13 21.10 С 5 40 км 9/9 900 м
[Cu med, cong]
+10.7 +2.8 58 +8 +8 1025.5 1000.9
14 21.10 С 6
{11}
н/о н/о +10.9 +3.0 58 +8 +8 1025.4 1000.8
15 21.10 С 5 35 км 8/8 800 м
[Cu med, cong Ac lent Ci sp]
+10.8 +2.9 58 +8 +8 1025.4 1000.8
17 21.10 С 4 н/о н/о +9.4 +2.9 64 +7 +7 1026.4 1001.6
16 21.10 С 5
{10}
н/о н/о +10.1 +2.7 60 +7 +7 1025.8 1001.1
18 21.10 С 4
{8}
30 км 8/5 900 м
[Sc Ac lent Ci sp]
+9.5 +3.5 66 +7 +7 1026.6 1001.8 +11.4
19 21.10 С 5
{11}
н/о н/о +9.6 +3.6 66 +7 +7 1026.9 1002.1
20 21.10 С 4
{10}
н/о н/о +9.6 +3.8 67 +7 +7 1026.8 1002.0
21 21.10 С 3 н/о н/о +9.6 +4.0 68 +8 +8 1026.9 1002.1
23 21.10
{9}
н/о н/о +9.6 +3.8 67 1026.9 1002.1
22 21.10 С 4
{9}
н/о н/о +9.6 +4.0 68 +7 +7 1027.0 1002.2
00 22.10 С 4
{9}
н/о н/о +9.7 +3.9 67 +7 +7 1026.7 1002.0
01 22.10 С 5
{9}
н/о н/о +9.8 +4.0 67 +7 +7 1026.2 1001.5
02 22.10 С 4
{10}
н/о н/о +9.7 +3.9 67 +7 +7 1026.0 1001.3
03 22.10 С 3 18 км 10/0
[Ac As]
+9.4 +3.8 68 +7 +7 1026.1 1001.3
05 22.10 С 3 20 км 9/5 900 м
[Sc Ac As Ci sp]
+9.0 +3.8 70 +7 +7 1026.0 1001.2
04 22.10 С 4
{9}
20 км 10/0
[Ac As]
+9.4 +3.8 68 +7 +7 1026.1 1001.3
06 22.10 С 3
{7}
20 км 9/4 900 м
[Sc Ac As]
+9.1 +3.9 70 +7 +7 1026.2 1001.4 +8.9
07 22.10 С 4
{7}
н/о н/о +9.3 +3.9 69 +7 +7 1026.9 1002.1
08 22.10 С 4
{9}
н/о н/о +9.8 +4.0 67 +7 +7 1027.0 1002.3
09 22.10 С 3 25 км 9/9 1080 м
[Sc]
+10.6 +4.1 64 +9 +9 1027.5 1002.8
11 22.10 С 3
{8}
25 км 9/6 1200 м
[Sc Ac As]
+11.5 +3.8 59 +10 +11 1026.9 1002.3
10 22.10 С 4
{8}
н/о н/о +11.6 +3.6 58 +10 +10 1027.3 1002.7
12 22.10 С 4 26 км 6/4 1200 м
[Sc Ac lent Ci fib]
+12.9 +4.3 56 +11 +13 1026.0 1001.5
13 22.10 С 3
{7}
26 км 4/0
[Ac lent Ci sp]
+13.6 +3.7 51 +13 +15 1025.3 1000.9
14 22.10 С 3 н/о н/о +13.6 +3.9 52 +13 +13 1024.9 1000.5
15 22.10 С 3 25 км 4/0
[Ac lent Ci sp]
+12.9 +4.3 56 +12 +12 1025.1 1000.7
17 22.10 СВ 1 н/о н/о +9.9 +4.1 67 +10 +10 1025.9 1001.2
16 22.10 СВ 2 н/о н/о +12.1 +4.3 59 +11 +11 1025.2 1000.7
18 22.10 СЗ 1 20 км 5/0
[Ac und Ci sp]
+9.0 +4.2 72 +9 +9 1026.3 1001.5 +14.0
19 22.10 З 2 н/о н/о +6.8 +3.8 81 +5 +5 1026.7 1001.7
20 22.10 СЗ 1 н/о н/о +6.6 +3.9 83 +6 +6 1026.7 1001.7
21 22.10 З 1 н/о н/о +6.6 +3.8 82 +6 +6 1027.1 1002.1

 

Местоположение метеостанции Szombathely (Венгрия): широта 47.27 долгота 16.63 высота над уровнем моря 221 м.

В архиве по умолчанию представлена погода в Szombathely за последнюю неделю. Архивные данные за месяц целиком и за предыдущие месяцы, начиная с января 2011 года, Вы можете получить, выбрав интересующий диапазон дат из раскрывающегося списка и нажав кнопку "Ввод!".


*Определитесь, кто Вы:
робот инопланетянин человек

Внимание! Время в таблицах - всемирное. Для получения местного времени необходимо прибавить поправку, которая в Szombathely равна 1 ч.

Смотрите также архив погоды в соседних городах и на ближайших метеорологических станциях:

Погода в Lutzmannsburg (Австрия) (22 км)
Погода в Kleinzicken (Австрия) (24 км)
Погода в Bad Tatzmannsdorf (Австрия) (32 км)
Погода в Krumbach I. D. Buckligen Welt (Австрия) (44 км)
Погода в Szentgotthard (Венгрия) (45 км)
Погода в Sopron (Венгрия) (46 км)
Погода в Zalaegerszeg (Венгрия) (46 км)
Погода в Hartberg (Австрия) (49 км)
Погода в Moenichkirchen (Австрия) (53 км)
Погода в Andau (Австрия) (63 км)

Пояснения к столбцам:

Ветер - указаны скорость ветра в м/с - средняя за 10 мин, порывы в срок и между сроками (в фигурных скобках) и направление, откуда дует ветер: С - северный, СВ - северо-восточный, В - восточный, ЮВ - юго-восточный, Ю - южный, ЮЗ - юго-западный, З - западный, СЗ - северо-западный.
Видимость - горизонтальная дальность видимости в метрах или километрах. При видимости от 1 до 10 км при отсутствии осадков обычно наблюдается дымка, при ухудшении видимости до 1 км и менее - туман. В сухую погоду видимость может ухудшаться дымом, пылью или мглою.
Явления - указаны атмосферные явления, наблюдавшиеся в срок или в последний час перед сроком; фигурными скобками обозначены явления, наблюдавшиеся между сроками (за 1-3 часа до срока); квадратными скобками обозначены град или гололедные отложения с указанием их диаметра в мм.
Облачность - указаны через наклонную черту общая и нижняя облачность в баллах и высота нижней границы облаков в метрах; квадратными скобками обозначены формы облаков: Ci - перистые, Cs - перисто-слоистые, Cc - перисто-кучевые, Ac - высококучевые, As - высокослоистые, Sc - слоисто-кучевые, Ns - слоисто-дождевые, Cu - кучевые, Cb - кучево-дождевые. Подробнее классификацию облаков см. в Атласе облаков (PDF).
T - Температура воздуха - температура, измеренная на высоте 2 м над землей.
Td - Температура точки росы - температура, при понижении до которой содержащийся в воздухе водяной пар достигнет насыщения.
f - Относительная влажность воздуха - влажноcть воздуха, измеренная на высоте 2 м над землей.
Te - Эффективная температура - температура, которую ощущает одетый по сезону человек в тени. Характеристика душности погоды. При расчете учитывается влияние влажности воздуха и скорости ветра на теплоощущения человека.
Tes - Эффективная температура на солнце - температура, которую ощущает человек, с поправкой на солнечный нагрев. Характеристика знойности погоды. Зависит от высоты солнца над горизонтом, облачности и скорости ветра. Ночью, в пасмурную погоду, а также при ветре 12 м/с и более поправка равна нулю.
P - Атмосферное давление - приведенное к уровню моря атмосферное давление.
Po - Атмосферное давление - измеренное на уровне метеостанции атмосферное давление.
Tmin - Минимальная температура - минимум температуры воздуха на высоте 2 м над землей.
Tmax - Максимальная температура - максимум температуры воздуха на высоте 2 м над землей.
R - Количество осадков - Количество выпавших осадков за период времени, мм. При наведении курсора мыши на число - период времени, за который выпало указанное количество осадков.
R24 - Количество осадков - Количество выпавших осадков за 24 часа, мм.
S - Снежный покров - Высота снежного покрова, см. При наведении курсора мыши на число - состояние снежного покрова и степень покрытия местности в баллах.